SCP
1 1 2 2 2 1 1 1 1 1 1 1 0 0 1 1 1 1 1 1 1 1 1 0 0 0 0 0 0 0 0 0 0 0 0 0 0 0 0 0 0 0 0
1 1 2 2 2 2 1 1 1 1 1 1 1 1 1 1 0 0 0 0 0 0 0 0 0 0 0 0 0 0 0 0 0 0 0 0 0 0 0 0 0 0 0
1 1 1 2 2 1 1 1 1 1 1 1 1 1 1 1 0 0 0 0 0 0 0 0 0 0 0 0 0 0 0 0 0 0 0 0 0 0 0 0 0 0 0
1 1 1 1 1 1 1 1 1 1 1 1 1 1 1 1 0 0 0 0 0 0 0 0 0 0 0 0 0 0 0 0 0 0 0 0 0 0 0 0 0 0 0
1 1 1 1 1 2 2 1 1 1 1 1 1 1 1 0 0 0 0 0 0 0 0 0 0 0 0 0 0 0 0 0 0 0 0 0 0 0 0 0 0 0 0
1 1 1 1 2 2 2 2 1 1 1 1 1 1 1 0 0 0 0 0 0 1 1 1 0 0 0 0 0 0 0 0 0 0 0 0 0 0 0 0 0 0 0
1 1 1 2 2 2 2 1 1 1 1 1 1 1 1 1 1 1 1 1 1 1 1 1 0 0 0 0 0 0 0 0 0 0 0 0 0 0 0 0 0 0 0
1 1 1 2 2 2 2 1 1 1 1 1 1 1 1 1 1 1 1 1 1 1 1 1 0 0 0 0 0 0 0 0 0 0 0 0 0 0 1 1 1 1 1
1 1 2 2 2 2 2 2 2 2 1 1 1 1 1 1 1 1 1 1 1 1 1 1 1 1 1 0 0 0 0 0 0 0 0 0 0 1 1 1 1 1 1
2 2 2 2 2 2 1 2 2 2 2 1 1 1 1 1 1 1 1 1 1 1 1 1 1 1 1 1 1 0 0 0 0 0 0 0 1 1 1 1 1 1 1
2 2 2 2 2 1 1 1 2 1 1 1 1 1 1 1 1 1 1 1 1 1 1 1 1 1 1 1 1 1 0 0 0 0 0 0 1 1 1 1 1 1 1
3 2 2 1 1 1 1 1 2 2 2 1 1 1 1 1 1 1 1 1 2 2 2 2 2 2 2 1 1 1 1 1 0 0 0 1 1 1 2 2 2 2 2
4 3 2 2 1 1 1 2 2 2 2 2 2 1 1 1 1 1 1 1 2 2 2 2 2 2 2 2 1 1 1 1 1 1 1 1 1 2 2 2 2 2 2
5 4 3 3 2 2 2 2 2 2 2 2 2 2 2 2 2 1 1 2 2 3 3 3 2 2 2 2 2 1 1 1 1 1 1 1 1 2 2 2 2 2 1
6 5 5 4 4 3 3 3 3 3 2 2 2 2 3 2 2 2 1 2 2 3 3 3 3 3 2 2 2 2 2 2 2 1 1 1 2 2 2 2 2 2 2
7 7 6 5 4 4 4 4 4 3 3 2 2 2 3 3 2 2 2 2 3 3 3 3 3 3 3 3 2 2 2 2 2 2 1 2 2 2 3 3 3 2 2
7 7 7 6 5 4 4 4 4 3 3 3 3 2 3 3 3 2 2 2 3 3 3 3 8 12 9 3 3 3 2 2 2 2 2 2 2 2 3 3 3 3 2
7 7 7 6 5 4 4 4 3 3 3 3 3 3 3 3 3 2 2 2 2 2 2 2 11 21 12 3 3 4 3 3 3 2 2 2 1 2 2 2 2 2 2
7 7 7 6 5 4 3 3 3 3 3 3 3 3 3 3 2 2 2 1 1 2 2 2 7 11 8 2 2 3 2 3 4 3 1 2 1 1 2 2 2 2 2
7 6 6 5 4 3 3 3 2 2 2 2 3 3 3 2 2 2 1 1 1 1 1 2 2 1 1 2 2 1 1 2 3 2 1 1 1 1 1 1 1 2 2
5 5 4 4 3 3 2 2 2 2 2 2 3 3 2 2 2 2 1 1 1 1 1 1 1 1 1 1 1 1 1 1 1 1 1 1 1 1 1 1 1 1 1
3 3 3 2 2 2 2 1 1 1 1 2 2 2 2 2 2 2 1 1 1 1 1 1 1 1 1 1 1 1 0 0 1 1 1 1 1 1 1 1 1 1 1
1 1 1 1 1 1 1 1 1 1 1 1 1 1 1 1 1 1 1 1 1 1 1 0 1 1 1 0 1 0 0 0 0 0 0 1 1 1 1 1 1 1 2
1 1 1 1 1 1 1 2 1 1 1 1 1 1 1 1 1 1 1 1 1 1 1 1 1 1 0 0 0 0 0 0 0 0 0 0 0 1 1 1 1 2 2
1 1 1 2 2 2 2 2 2 1 1 1 1 1 1 1 1 1 1 1 1 1 1 1 1 0 0 0 0 0 0 0 0 0 0 0 0 0 1 1 1 1 2
1 1 1 2 2 2 2 2 2 1 1 0 0 0 0 1 1 1 1 1 1 1 1 1 1 0 0 0 0 0 0 0 0 0 0 0 0 0 0 1 1 1 1
Wind_Speed
10 11 18 19 19 19 18 17 17 17 17 17 17 17 17 18 17 17 17 16 15 15 14 14 13 13 13 13 14 14 15 15 15 16 16 15 14 14 15 16 15 12 17
15 14 18 19 20 19 18 18 17 17 17 16 16 16 16 16 16 16 15 15 15 14 14 13 13 13 13 13 13 13 14 14 14 15 15 14 13 14 14 15 14 10 16
18 14 16 19 19 19 18 18 17 17 17 16 16 16 15 15 15 15 14 14 14 14 13 13 12 12 12 12 12 12 12 12 13 14 13 7 8 13 14 15 16 16 15
17 12 14 19 19 19 18 17 17 17 16 16 16 15 15 14 14 14 13 13 13 13 13 12 12 11 11 11 11 11 10 11 11 12 6 5 6 14 15 15 15 15 15
14 11 14 21 20 19 18 17 17 17 16 16 16 15 15 14 13 13 12 12 12 12 12 12 12 11 10 10 10 9 9 9 9 7 4 4 5 13 15 15 14 14 15
12 10 13 20 19 19 18 17 16 16 16 16 15 15 14 14 13 13 12 12 12 11 12 11 11 11 10 9 9 8 8 8 6 3 5 6 6 12 15 15 15 14 14
12 9 11 19 19 18 17 16 15 15 15 15 14 14 14 14 13 13 12 12 12 12 12 11 11 11 10 9 9 8 7 7 4 3 5 6 7 13 15 15 15 14 14
14 10 10 18 18 18 17 16 15 14 14 14 14 14 13 13 12 12 12 12 12 12 12 12 11 11 10 10 9 8 7 6 4 4 5 7 11 15 16 16 15 15 14
13 11 8 9 13 16 16 15 14 14 13 13 13 13 13 13 12 12 12 12 12 12 12 13 12 12 11 11 10 9 9 8 3 2 5 6 13 17 18 17 16 15 15
10 9 8 7 7 7 9 14 14 14 14 13 13 13 13 13 13 13 11 12 13 13 13 14 14 13 13 12 12 11 10 8 4 3 3 6 16 19 19 18 18 17 16
9 7 7 7 6 6 6 11 12 13 13 13 11 14 12 6 6 7 11 13 15 15 15 15 15 14 13 13 13 13 10 3 4 3 3 9 17 20 20 19 19 18 17
10 8 7 7 7 7 7 6 4 5 6 6 5 6 4 4 4 7 9 15 16 16 16 16 16 14 11 6 9 12 5 5 4 4 5 12 17 20 20 20 20 20 19
11 10 9 8 8 7 4 5 3 3 3 4 5 5 4 4 4 5 3 7 10 13 9 10 11 7 6 5 5 5 5 5 4 5 6 12 17 21 21 21 21 20 20
9 9 8 8 7 6 4 4 3 3 3 4 5 6 4 3 4 3 3 4 5 4 6 6 5 7 8 8 7 8 8 6 6 5 6 12 15 20 22 21 21 20 20
6 7 6 6 6 5 4 3 3 3 3 3 3 4 5 4 4 3 3 3 4 4 5 6 6 7 8 8 8 9 9 10 9 7 5 11 14 18 21 22 22 21 21
6 6 6 5 4 5 4 2 2 2 2 2 2 3 4 3 3 2 2 2 3 3 5 6 7 7 7 7 8 9 9 9 9 8 7 8 13 15 18 20 21 21 21
5 6 6 6 4 5 4 3 2 2 2 1 1 1 2 2 2 2 2 2 3 3 4 4 6 6 6 7 8 9 8 8 8 9 9 6 8 15 19 20 20 21 22
6 6 5 5 4 4 3 2 2 2 2 1 1 1 1 1 1 1 1 2 2 3 3 3 4 4 6 6 6 6 6 6 8 9 8 8 7 8 14 21 21 21 22
5 6 5 4 4 4 4 3 2 2 2 1 1 1 1 1 0 0 1 2 2 2 2 3 2 3 4 5 5 6 6 6 7 8 8 9 9 9 8 14 21 21 22
5 5 6 5 5 4 3 3 2 2 1 1 1 0 1 1 0 0 1 2 2 2 2 2 3 3 4 4 6 6 5 6 6 6 8 8 8 11 11 11 10 14 21
5 5 5 4 3 3 2 2 1 1 1 1 1 1 1 1 1 1 1 2 2 1 2 3 2 4 4 3 3 4 4 6 7 7 7 6 8 10 10 11 8 7 9
5 4 4 4 4 3 2 2 1 1 1 1 1 1 1 2 2 2 2 2 2 2 2 2 2 2 3 3 3 2 2 3 5 8 6 7 8 7 8 11 9 9 7
6 6 6 5 5 4 3 2 1 2 2 2 2 2 2 3 3 3 3 3 3 2 2 2 2 2 2 2 3 3 2 3 2 3 5 6 7 7 7 7 10 10 10
7 6 6 5 5 4 3 2 2 1 1 2 2 2 3 4 4 4 4 4 4 3 3 3 2 2 2 2 2 2 3 2 2 2 2 3 5 6 7 7 8 9 9
6 5 4 4 4 3 3 3 3 2 3 2 2 3 3 4 4 4 4 4 4 3 4 3 2 2 2 2 2 1 2 2 3 2 3 2 2 3 4 6 6 7 8
2 3 3 3 3 3 3 3 3 4 3 3 3 3 3 3 3 4 3 3 4 3 4 4 3 3 2 2 2 2 2 1 2 2 3 3 2 3 3 3 4 5 6
Wind_Direction
152 159 152 145 139 136 132 128 124 121 120 118 117 116 116 116 117 119 122 125 126 127 126 124 121 119 116 115 115 117 118 119 120 121 120 118 119 121 119 116 113 112 114
150 156 151 146 142 140 138 135 132 129 127 126 124 123 123 123 124 124 126 128 130 130 129 128 125 123 121 121 121 123 124 125 125 123 120 117 118 124 123 119 118 122 120
145 151 150 147 144 143 142 140 138 136 135 134 132 131 131 131 132 132 133 134 134 134 133 132 130 129 128 128 129 130 130 130 128 125 118 112 115 124 128 124 124 124 124
143 145 148 147 145 145 145 145 143 142 141 141 140 140 139 140 141 141 141 141 141 140 141 140 138 137 137 137 137 137 137 138 137 131 124 129 123 126 130 129 129 129 128
139 141 150 147 147 147 148 148 148 148 148 148 148 148 148 149 150 149 149 148 148 147 148 148 147 147 147 148 147 147 148 150 153 144 143 141 128 136 137 137 137 135 135
136 138 150 147 147 148 149 151 153 154 154 154 155 155 155 157 158 157 158 157 156 157 155 155 156 157 159 160 161 162 163 167 164 145 148 149 146 148 146 146 145 144 143
134 137 147 147 148 149 151 153 156 158 159 159 160 161 162 164 165 166 167 167 167 166 165 165 166 167 171 174 177 180 182 185 168 155 159 164 165 157 155 154 153 152 151
139 139 145 149 149 152 154 157 159 161 162 163 165 167 169 171 174 174 175 177 178 176 176 177 178 180 183 188 193 197 201 207 188 176 174 175 176 167 162 160 160 160 159
139 140 141 149 152 156 159 161 163 165 167 169 172 173 175 178 181 182 183 186 189 188 188 188 189 191 193 197 203 210 214 218 201 187 191 181 182 175 171 168 167 168 168
136 143 142 144 147 152 160 166 169 171 174 176 179 181 184 187 190 193 192 197 199 199 199 199 199 200 203 206 212 218 224 226 211 207 201 194 189 182 178 176 175 175 176
138 146 149 149 149 150 159 175 175 179 182 185 187 190 190 193 196 201 206 208 210 209 209 209 208 208 209 214 218 224 229 224 208 207 204 207 196 191 184 182 182 181 182
150 158 163 164 162 162 176 172 177 185 187 189 191 194 187 187 204 213 221 221 220 219 218 216 214 215 214 215 224 225 224 221 225 222 213 210 203 201 193 188 187 186 187
158 165 169 174 171 175 179 165 182 188 187 196 202 203 197 197 210 221 220 231 229 227 224 222 217 215 213 207 214 220 222 222 226 230 223 216 208 207 202 194 192 191 191
148 163 161 167 168 174 166 167 180 190 191 199 208 208 201 207 214 218 218 223 219 219 216 217 215 215 217 213 212 219 224 223 226 224 230 229 215 210 207 200 196 196 196
135 143 150 144 150 150 146 158 164 172 182 197 198 205 200 204 215 220 222 226 223 219 215 216 217 217 220 221 222 224 226 224 227 226 229 231 220 213 211 206 202 201 201
111 123 118 122 132 125 122 132 139 129 137 145 179 195 192 198 206 215 233 237 235 230 226 220 219 219 221 221 226 227 227 225 225 225 222 229 224 214 213 211 208 207 207
100 109 124 121 110 105 105 112 110 107 104 110 125 136 156 168 192 203 232 242 248 246 241 234 230 222 223 226 227 227 224 222 223 225 223 218 218 215 211 211 212 211 212
94 94 95 103 97 96 99 101 91 91 102 113 112 106 104 113 142 161 258 271 268 265 254 245 234 229 228 225 227 232 229 223 225 225 222 215 211 214 213 214 215 217 217
91 93 87 90 88 79 73 69 68 67 74 94 106 115 112 94 95 136 272 281 292 284 270 266 250 229 233 230 231 232 231 228 228 229 224 218 212 212 210 217 218 219 220
97 94 92 83 79 77 65 56 47 41 32 33 50 141 139 147 123 124 263 280 295 301 291 275 260 252 242 236 246 245 235 229 225 225 227 222 216 216 213 215 216 222 222
105 103 104 102 96 92 77 72 57 356 324 328 279 235 208 209 206 207 267 281 278 275 280 290 278 265 256 239 243 258 253 236 231 230 227 220 218 218 211 211 208 209 216
141 141 139 138 137 134 140 153 166 194 254 257 298 304 274 251 238 226 233 259 266 267 288 294 289 271 262 229 210 225 260 267 242 232 222 220 222 220 215 213 207 206 208
170 174 170 171 166 165 157 127 78 48 20 5 338 305 285 265 252 247 240 238 243 234 252 264 265 272 278 260 207 197 206 227 264 261 233 227 218 216 216 211 207 207 207
194 187 181 181 182 180 159 144 148 165 222 241 246 259 277 267 258 252 244 234 233 227 231 246 236 238 256 274 258 231 234 215 214 284 289 246 227 219 213 212 209 206 203
197 188 187 181 188 185 171 169 176 203 223 246 265 285 291 287 275 263 249 238 234 228 225 234 236 228 229 234 243 260 259 245 220 219 262 275 265 237 221 211 202 199 199
162 153 166 168 199 203 194 195 196 216 236 256 273 280 286 288 286 276 261 247 239 233 230 229 227 226 230 236 229 213 218 224 224 208 236 252 256 258 237 216 200 194 192